Location: Bakhuizen
(52.8696°N, 5.4575°E)
Time: 18:01:24
(UTC+00:00)

Iridium 4 Rocket - Pass Details

Date: 11 May 2021
Orbit: 583 x 906 km, 86.9° (Epoch: 21 June)

Event Time Altitude Azimuth Distance (km) Brightness Sun altitude
Exits shadow 21:30:57 11° 191° (S) 2,483 5.7 -14.1°
Maximum altitude 21:36:37 72° 275° (W) 952 4.0 -14.6°
Drops below altitude 10° 21:42:34 10° 1° (N) 2,600 7.2 -15.0°
Sets 21:45:03 0° 3° (N) 3,535 8.0 -15.2°
